Regional Weather Roundup
Issued by NWS Charleston, SC

Current Version | Previous Version | Graphics & Text | Print | Product List | Glossary On
Versions: 1 2 3 4 5 6 7 8 9 10 11 12 13 14 15 16 17 18 19 20 21 22 23 24 25 26 27 28 29 30 31 32 33 34 35 36 37 38 39 40 41 42 43 44 45 46 47 48 49 50
000
ASUS42 KCHS 200027
RWRCHS

REGIONAL WEATHER ROUNDUP
NATIONAL WEATHER SERVICE CHARLESTON SC
700 PM EST SUN NOV 19 2017

NOTE: "FAIR" INDICATES FEW OR NO CLOUDS BELOW 12,000 FEET WITH NO
SIGNIFICANT WEATHER AND/OR OBSTRUCTIONS TO VISIBILITY.

NOT ALL STATIONS ARE QUALITY CONTROLLED. USE DATA WITH CAUTION...
ESPECIALLY DEWPOINT OBSERVATIONS.

SCZ027-030-031-034>040-042>050-200100-
...SOUTHEAST SOUTH CAROLINA...

CITY           SKY/WX    TMP DP  RH WIND       PRES   REMARKS
N CHARLESTON   CLEAR     50  38  63 NW5       29.97R
6HR MIN TEMP:  50; 6HR MAX TEMP:  67;

WATERFRONT PRK NOT AVBL
JOHNS ISLAND   FAIR      52  45  76 W3        29.98R
PINOPOLIS        N/A     61  45  55 NW7       29.86R
MONCKS CORNER  FAIR      48  37  66 CALM      29.98R
SUMMERVILLE    FAIR      52  39  62 W5        29.99R
BEAUFORT MCAS  CLEAR     55  42  61 W5        29.99
6HR MIN TEMP:  55; 6HR MAX TEMP:  67;

BEAUFORT ARPT  FAIR      54  41  62 W5        29.99R
HILTON HEAD IS CLEAR     57  39  51 W5        30.00R
WALTERBORO     CLEAR     50  39  66 W5        30.01R
ALLENDALE      FAIR      52  32  46 CALM      30.01R

...SOUTHERN MIDLANDS AND PEE DEE...

CITY           SKY/WX    TMP DP  RH WIND       PRES   REMARKS
GEORGETOWN     FAIR      52  36  54 CALM      29.97R
KINGSTREE      FAIR      46  32  57 W3        29.98R
ORANGEBURG     PTCLDY    53  36  52 NW6       29.99R
6HR MIN TEMP:  53; 6HR MAX TEMP:  65;

BARNWELL         N/A     52  34  50 CALM      30.02R
AIKEN          FAIR      46  32  57 W6        30.04R
MANNING        FAIR      48  36  61 MISG      29.99R
COLUMBIA       CLEAR     56  35  45 NW8       29.99R
6HR MIN TEMP:  53; 6HR MAX TEMP:  65;

SUMTER         CLEAR     51  28  41 CALM      29.96R
6HR MIN TEMP:  51; 6HR MAX TEMP:  65;

FLORENCE       CLEAR     53  29  39 NW7       29.97R
6HR MIN TEMP:  53; 6HR MAX TEMP:  65;

MYRTLE BEACH   CLEAR     53  37  54 NW5       29.96R
N MYRTLE BEACH CLEAR     46  40  79 CALM      29.94R
6HR MIN TEMP:  46; 6HR MAX TEMP:  66;


$$

GAZ063-065-086>088-099>101-113>116-118-119-134>141-150-200100-
...SOUTHEAST GEORGIA...

CITY           SKY/WX    TMP DP  RH WIND       PRES   REMARKS
SAVANNAH ARPT  CLEAR     55  36  48 NW12      30.00R
6HR MIN TEMP:  54; 6HR MAX TEMP:  66;

HUNTER AAF     CLEAR     52  38  59 W5        29.98R
6HR MIN TEMP:  51; 6HR MAX TEMP:  66;

FORT STEWART   CLEAR     54  34  47 NW8       29.99R
6HR MIN TEMP:  53; 6HR MAX TEMP:  65;

STATESBORO     CLEAR     51  32  48 NW6       30.03R
SYLVANIA       CLEAR     52  37  58 NW7       30.03R
CLAXTON        FAIR      53  36  52 W6        30.03R

...CSRA...CENTRAL AND FAR SOUTHEAST GEORGIA...

CITY           SKY/WX    TMP DP  RH WIND       PRES   REMARKS
THOMSON        CLEAR     44  36  73 NW6       30.08R
AUGUSTA-BUSH   CLEAR     46  33  60 W3        30.02R
6HR MIN TEMP:  46; 6HR MAX TEMP:  64;

AUGUSTA-DANIEL PTCLDY    54  31  41 W7        30.02R
SWAINSBORO     FAIR      48  34  57 NW7       30.05R
VIDALIA        CLEAR     52  36  54 NW5       30.04R
EASTMAN        FAIR      47  31  52 CALM      30.09R
HAZLEHURST     FAIR      54  23  30 CALM      30.04R
ALMA           CLEAR     54  36  50 NW7       30.03R
6HR MIN TEMP:  51; 6HR MAX TEMP:  65;

WAYCROSS       CLEAR     52  34  51 N6        30.03R
JESUP          FAIR      54  37  54 NW3       30.03R
BAXLEY         FAIR      50  34  53 CALM      30.04R
BRUNSWICK      CLEAR     46  41  81 CALM      30.02R
SAINT SIMONS   CLEAR     58  40  51 NW6       30.00R
6HR MIN TEMP:  58; 6HR MAX TEMP:  68;


$$

SCZ027-028-034-036>038-045-046-048>050-GAZ119-141-200100-
...LAKE AND SUPPLEMENTAL COASTAL OBSERVATIONS...

STATION/POSITION TIME  TEMP    WIND        PRES    WAVE   SWELL
                       AIR SEA DIR/SP/G            HT/PER HT/PER/DIR
                 (UTC) (F)     (DEG/KT/KT) (MB)    (FT/S) (FT/S/D)
WINYAH BAY       2330   53     320/  2     1014.0R
LAKE MURRAY      NOT AVBL
ACE BASIN NERRS  2345   55     260/  1     1015.0R
FORT PULASKI     0000   58 62  320/  9/ 12 1016.0
SAPELO ISLAND    0000   56     320/  5     1016.0

$$

ANZ835-935-AMZ111-154-330-350-352-354-370-450-454-472-200100-
...C-MAN AND BUOY OBSERVATIONS...

STATION/POSITION TIME  TEMP    WIND        PRES    WAVE   SWELL
                       AIR SEA DIR/SP/G            HT/PER HT/PER/DIR
                 (UTC) (F)     (DEG/KT/KT) (MB)    (FT/S) (FT/S/D)
BUOY 41004       0010   65 73  320/ 17/ 25 1013.6
BUOY 41008       2350   63 68  310/ 17/ 23 1014.7R   3/ 4
FOLLY BEACH CMAN 0000   56     290/  3/  4 1015.3R
CAPERS NEARSHORE 0008   58 62  330/ 12/ 14 1014.3R
FRIPP NEARSHORE  0008   58 62  290/ 14/ 19 1014.7R


STATION/POSITION TIME  TEMP    WIND        PRES    WAVE   SWELL
                       AIR SEA DIR/SP/G            HT/PER HT/PER/DIR
                 (UTC) (F)     (DEG/KT/KT) (MB)    (FT/S) (FT/S/D)
5E ST. MARYS GA  0000      67                N/A     2/ 3
FRYING PAN BUOY  0010   63 71  320/ 19/ 25 1013.1
BUOY 41025       0010   60 65  320/ 19/ 23 1011.8
CAPE LOOKOUT NC  0000          320/ 13/ 17 1013.0R
BUOY 41002       2350   71 77  310/ 21/ 25 1009.5R  10/ 8
BUOY 41010       NOT AVBL
ST AUGUSTINE FL  0000   62 69  330/  8/  9 1015.5R


$$




USA.gov is the U.S. government's official web portal to all federal, state and local government web resources and services.